Time,TemperatureF,DewpointF,PressureIn,WindDirection,WindDirectionDegrees,WindSpeedMPH,WindSpeedGustMPH,Humidity,HourlyPrecipIn,Conditions,Clouds,dailyrainin,SoftwareType,DateUTC
2013-06-24 00:01:00,71.2,68.1,30.06,West,272,9.0,9.0,90,0.00,,,0.00,Wunderground v.1.15,2013-06-24 04:01:00,
2013-06-24 00:05:00,71.2,68.1,30.07,West,276,8.0,9.0,90,0.00,,,0.00,Wunderground v.1.15,2013-06-24 04:05:00,
2013-06-24 00:15:00,71.2,68.1,30.07,West,260,7.0,7.0,90,0.00,,,0.00,Wunderground v.1.15,2013-06-24 04:15:00,
2013-06-24 00:20:00,71.2,68.4,30.07,West,262,7.0,8.0,91,0.00,,,0.00,Wunderground v.1.15,2013-06-24 04:20:00,
2013-06-24 00:25:00,71.2,68.4,30.07,WSW,255,7.0,8.0,91,0.00,,,0.00,Wunderground v.1.15,2013-06-24 04:25:00,
2013-06-24 00:30:00,71.1,68.3,30.07,WSW,246,7.0,7.0,91,0.00,,,0.00,Wunderground v.1.15,2013-06-24 04:30:00,
2013-06-24 00:35:00,71.0,68.2,30.07,West,271,6.0,7.0,91,0.00,,,0.00,Wunderground v.1.15,2013-06-24 04:35:00,
2013-06-24 00:45:00,70.9,68.1,30.07,West,266,5.0,5.0,91,0.00,,,0.00,Wunderground v.1.15,2013-06-24 04:45:00,
2013-06-24 00:50:00,70.8,68.0,30.07,West,278,5.0,5.0,91,0.00,,,0.00,Wunderground v.1.15,2013-06-24 04:50:00,
2013-06-24 00:55:00,70.7,67.9,30.07,West,266,5.0,5.0,91,0.00,,,0.00,Wunderground v.1.15,2013-06-24 04:55:00,
2013-06-24 01:05:00,70.6,68.2,30.06,West,259,4.0,14.0,92,0.00,,,0.00,Wunderground v.1.15,2013-06-24 05:05:00,
2013-06-24 01:10:00,70.6,68.2,30.07,WNW,284,3.0,14.0,92,0.00,,,0.00,Wunderground v.1.15,2013-06-24 05:10:00,
2013-06-24 01:20:00,70.3,67.9,30.07,WSW,252,3.0,3.0,92,0.00,,,0.00,Wunderground v.1.15,2013-06-24 05:20:00,
2013-06-24 01:25:00,70.2,68.1,30.07,NW,304,3.0,14.0,93,0.00,,,0.00,Wunderground v.1.15,2013-06-24 05:25:00,
2013-06-24 01:30:00,70.0,67.9,30.06,NW,308,2.0,14.0,93,0.00,,,0.00,Wunderground v.1.15,2013-06-24 05:30:00,
2013-06-24 01:35:00,69.8,67.7,30.07,SW,232,2.0,14.0,93,0.00,,,0.00,Wunderground v.1.15,2013-06-24 05:35:00,
2013-06-24 01:41:00,69.7,67.9,30.07,WNW,285,2.0,14.0,94,0.00,,,0.00,Wunderground v.1.15,2013-06-24 05:41:00,
2013-06-24 01:50:00,69.6,67.8,30.07,West,270,3.0,3.0,94,0.00,,,0.00,Wunderground v.1.15,2013-06-24 05:50:00,
2013-06-24 01:56:00,69.5,68.0,30.06,West,272,3.0,14.0,95,0.00,,,0.00,Wunderground v.1.15,2013-06-24 05:56:00,
2013-06-24 02:05:00,69.4,67.9,30.07,West,276,3.0,14.0,95,0.00,,,0.00,Wunderground v.1.15,2013-06-24 06:05:00,
2013-06-24 02:10:00,69.3,67.8,30.07,WSW,251,3.0,14.0,95,0.00,,,0.00,Wunderground v.1.15,2013-06-24 06:10:00,
2013-06-24 02:15:00,69.3,67.8,30.07,WNW,282,3.0,14.0,95,0.00,,,0.00,Wunderground v.1.15,2013-06-24 06:15:00,
2013-06-24 02:20:00,69.3,67.8,30.07,WNW,294,3.0,3.0,95,0.00,,,0.00,Wunderground v.1.15,2013-06-24 06:20:00,
2013-06-24 02:25:00,69.2,67.7,30.07,WNW,300,2.0,14.0,95,0.00,,,0.00,Wunderground v.1.15,2013-06-24 06:25:00,
2013-06-24 02:35:00,69.1,67.9,30.07,WSW,253,2.0,4.0,96,0.00,,,0.00,Wunderground v.1.15,2013-06-24 06:35:00,
2013-06-24 02:40:00,69.0,67.8,30.07,WSW,245,3.0,14.0,96,0.00,,,0.00,Wunderground v.1.15,2013-06-24 06:40:00,
2013-06-24 02:45:00,69.0,67.8,30.07,SW,235,4.0,14.0,96,0.00,,,0.00,Wunderground v.1.15,2013-06-24 06:45:00,
2013-06-24 02:50:00,68.9,67.7,30.07,WSW,245,4.0,14.0,96,0.00,,,0.00,Wunderground v.1.15,2013-06-24 06:50:00,
2013-06-24 03:00:00,68.8,67.6,30.07,WSW,257,4.0,4.0,96,0.00,,,0.00,Wunderground v.1.15,2013-06-24 07:00:00,
2013-06-24 03:10:00,68.8,67.9,30.07,West,259,3.0,3.0,97,0.00,,,0.00,Wunderground v.1.15,2013-06-24 07:10:00,
2013-06-24 03:15:00,68.8,67.9,30.07,WSW,248,4.0,5.0,97,0.00,,,0.00,Wunderground v.1.15,2013-06-24 07:15:00,
2013-06-24 03:20:00,68.9,68.0,30.06,WSW,255,4.0,5.0,97,0.00,,,0.00,Wunderground v.1.15,2013-06-24 07:20:00,
2013-06-24 03:25:00,69.0,68.1,30.06,West,259,5.0,5.0,97,0.00,,,0.00,Wunderground v.1.15,2013-06-24 07:25:00,
2013-06-24 03:31:00,69.0,68.1,30.07,West,260,5.0,5.0,97,0.00,,,0.00,Wunderground v.1.15,2013-06-24 07:31:00,
2013-06-24 03:40:00,69.1,68.2,30.06,WSW,252,5.0,7.0,97,0.00,,,0.00,Wunderground v.1.15,2013-06-24 07:40:00,
2013-06-24 03:50:00,69.0,68.1,30.06,WSW,245,6.0,6.0,97,0.00,,,0.00,Wunderground v.1.15,2013-06-24 07:50:00,
2013-06-24 03:55:00,68.9,68.0,30.05,WSW,250,6.0,6.0,97,0.00,,,0.00,Wunderground v.1.15,2013-06-24 07:55:00,
2013-06-24 04:00:00,68.8,67.9,30.05,West,265,6.0,6.0,97,0.00,,,0.00,Wunderground v.1.15,2013-06-24 08:00:00,
2013-06-24 04:05:00,68.8,67.9,30.05,West,272,6.0,6.0,97,0.00,,,0.00,Wunderground v.1.15,2013-06-24 08:05:00,
2013-06-24 04:10:00,68.9,68.0,30.06,WSW,253,5.0,6.0,97,0.00,,,0.00,Wunderground v.1.15,2013-06-24 08:10:00,
2013-06-24 04:21:00,69.0,68.1,30.05,WSW,257,6.0,7.0,97,0.00,,,0.00,Wunderground v.1.15,2013-06-24 08:21:00,
2013-06-24 04:30:00,69.2,68.3,30.05,WSW,250,6.0,7.0,97,0.00,,,0.00,Wunderground v.1.15,2013-06-24 08:30:00,
2013-06-24 04:35:00,69.2,68.3,30.05,West,263,6.0,8.0,97,0.00,,,0.00,Wunderground v.1.15,2013-06-24 08:35:00,
2013-06-24 04:45:00,69.2,68.3,30.05,WSW,250,7.0,8.0,97,0.00,,,0.00,Wunderground v.1.15,2013-06-24 08:45:00,
2013-06-24 04:55:00,69.1,68.2,30.05,WSW,251,7.0,7.0,97,0.00,,,0.00,Wunderground v.1.15,2013-06-24 08:55:00,
2013-06-24 05:00:00,69.0,68.1,30.04,West,276,6.0,6.0,97,0.00,,,0.00,Wunderground v.1.15,2013-06-24 09:00:00,
2013-06-24 05:05:00,69.0,68.1,30.04,WSW,248,6.0,11.0,97,0.00,,,0.00,Wunderground v.1.15,2013-06-24 09:05:00,
2013-06-24 05:10:00,69.0,68.1,30.05,WSW,254,6.0,9.0,97,0.00,,,0.00,Wunderground v.1.15,2013-06-24 09:10:00,
2013-06-24 05:15:00,69.1,68.2,30.05,WSW,249,7.0,9.0,97,0.00,,,0.00,Wunderground v.1.15,2013-06-24 09:15:00,
2013-06-24 05:20:00,69.0,68.1,30.04,WSW,252,7.0,9.0,97,0.00,,,0.00,Wunderground v.1.15,2013-06-24 09:20:00,
2013-06-24 05:25:00,69.1,68.2,30.04,WSW,250,8.0,9.0,97,0.00,,,0.00,Wunderground v.1.15,2013-06-24 09:25:00,
2013-06-24 05:35:00,69.1,68.5,30.04,WSW,245,8.0,10.0,98,0.00,,,0.00,Wunderground v.1.15,2013-06-24 09:35:00,
2013-06-24 05:40:00,69.2,68.6,30.04,West,277,9.0,9.0,98,0.00,,,0.00,Wunderground v.1.15,2013-06-24 09:40:00,
2013-06-24 05:50:00,69.4,68.8,30.04,West,271,8.0,8.0,98,0.00,,,0.00,Wunderground v.1.15,2013-06-24 09:50:00,
2013-06-24 06:00:00,69.7,68.8,30.04,WSW,254,7.0,7.0,97,0.00,,,0.00,Wunderground v.1.15,2013-06-24 10:00:00,
2013-06-24 06:10:00,69.7,68.8,30.04,WSW,255,7.0,7.0,97,0.00,,,0.00,Wunderground v.1.15,2013-06-24 10:10:00,
2013-06-24 06:15:00,69.7,68.8,30.04,West,263,6.0,7.0,97,0.00,,,0.00,Wunderground v.1.15,2013-06-24 10:15:00,
2013-06-24 06:20:00,69.9,69.0,30.04,WNW,283,6.0,6.0,97,0.00,,,0.00,Wunderground v.1.15,2013-06-24 10:20:00,
2013-06-24 06:26:00,69.9,69.0,30.05,West,279,6.0,6.0,97,0.00,,,0.00,Wunderground v.1.15,2013-06-24 10:26:00,
2013-06-24 06:35:00,70.1,69.2,30.05,WNW,285,5.0,6.0,97,0.00,,,0.00,Wunderground v.1.15,2013-06-24 10:35:00,
2013-06-24 06:40:00,70.1,69.2,30.05,West,264,5.0,5.0,97,0.00,,,0.00,Wunderground v.1.15,2013-06-24 10:40:00,
2013-06-24 06:50:00,70.2,69.3,30.05,West,271,5.0,5.0,97,0.00,,,0.00,Wunderground v.1.15,2013-06-24 10:50:00,
2013-06-24 06:55:00,70.2,69.3,30.06,WNW,288,4.0,5.0,97,0.00,,,0.00,Wunderground v.1.15,2013-06-24 10:55:00,
2013-06-24 07:06:00,70.2,69.3,30.06,WNW,283,4.0,4.0,97,0.00,,,0.00,Wunderground v.1.15,2013-06-24 11:06:00,
2013-06-24 07:16:00,70.4,69.5,30.06,West,271,4.0,4.0,97,0.00,,,0.00,Wunderground v.1.15,2013-06-24 11:16:00,
2013-06-24 07:25:00,70.5,69.6,30.07,West,264,4.0,4.0,97,0.00,,,0.00,Wunderground v.1.15,2013-06-24 11:25:00,
2013-06-24 07:35:00,70.9,70.0,30.08,WNW,293,5.0,11.0,97,0.00,,,0.00,Wunderground v.1.15,2013-06-24 11:35:00,
2013-06-24 07:45:00,71.1,69.9,30.08,WNW,293,5.0,11.0,96,0.00,,,0.00,Wunderground v.1.15,2013-06-24 11:45:00,
2013-06-24 07:50:00,71.2,70.0,30.08,WNW,285,6.0,6.0,96,0.00,,,0.00,Wunderground v.1.15,2013-06-24 11:50:00,
2013-06-24 07:56:00,71.4,70.2,30.08,WNW,295,6.0,11.0,96,0.00,,,0.00,Wunderground v.1.15,2013-06-24 11:56:00,
2013-06-24 08:05:00,71.6,70.4,30.08,NW,317,6.0,11.0,96,0.00,,,0.00,Wunderground v.1.15,2013-06-24 12:05:00,
2013-06-24 08:10:00,71.6,70.4,30.08,NW,304,6.0,11.0,96,0.00,,,0.00,Wunderground v.1.15,2013-06-24 12:10:00,
2013-06-24 08:16:00,71.7,70.5,30.08,WNW,298,6.0,12.0,96,0.00,,,0.00,Wunderground v.1.15,2013-06-24 12:16:00,
2013-06-24 08:25:00,72.0,70.5,30.09,WNW,293,7.0,11.0,95,0.00,,,0.00,Wunderground v.1.15,2013-06-24 12:25:00,
2013-06-24 08:30:00,72.0,70.5,30.08,WNW,296,8.0,11.0,95,0.00,,,0.00,Wunderground v.1.15,2013-06-24 12:30:00,
2013-06-24 08:35:00,72.2,70.7,30.08,WNW,293,9.0,13.0,95,0.00,,,0.00,Wunderground v.1.15,2013-06-24 12:35:00,
2013-06-24 08:40:00,72.3,70.8,30.09,West,264,9.0,9.0,95,0.00,,,0.00,Wunderground v.1.15,2013-06-24 12:40:00,
2013-06-24 08:45:00,72.4,70.9,30.09,WNW,293,9.0,11.0,95,0.00,,,0.00,Wunderground v.1.15,2013-06-24 12:45:00,
2013-06-24 08:50:00,72.6,70.8,30.09,NW,304,10.0,10.0,94,0.00,,,0.00,Wunderground v.1.15,2013-06-24 12:50:00,
2013-06-24 08:56:00,72.8,70.7,30.09,WNW,294,9.0,14.0,93,0.00,,,0.00,Wunderground v.1.15,2013-06-24 12:56:00,
2013-06-24 09:06:00,73.2,70.1,30.09,West,277,12.0,12.0,90,0.00,,,0.00,Wunderground v.1.15,2013-06-24 13:06:00,
2013-06-24 09:15:00,73.3,69.9,30.09,WNW,283,13.0,14.0,89,0.00,,,0.00,Wunderground v.1.15,2013-06-24 13:15:00,
2013-06-24 09:25:00,73.4,69.6,30.09,NW,325,11.0,16.0,88,0.00,,,0.00,Wunderground v.1.15,2013-06-24 13:25:00,
2013-06-24 09:30:00,73.5,69.7,30.10,NW,326,11.0,13.0,88,0.00,,,0.00,Wunderground v.1.15,2013-06-24 13:30:00,
2013-06-24 09:35:00,73.7,69.9,30.10,West,278,10.0,13.0,88,0.00,,,0.00,Wunderground v.1.15,2013-06-24 13:35:00,
2013-06-24 09:40:00,73.8,70.0,30.10,NNW,333,9.0,9.0,88,0.00,,,0.00,Wunderground v.1.15,2013-06-24 13:40:00,
2013-06-24 09:45:00,74.0,69.9,30.10,NNW,338,9.0,15.0,87,0.00,,,0.00,Wunderground v.1.15,2013-06-24 13:45:00,
2013-06-24 09:50:00,73.9,69.8,30.10,NNW,333,10.0,10.0,87,0.00,,,0.00,Wunderground v.1.15,2013-06-24 13:50:00,
2013-06-24 10:00:00,74.1,69.3,30.10,NW,315,8.0,11.0,85,0.00,,,0.00,Wunderground v.1.15,2013-06-24 14:00:00,
2013-06-24 10:10:00,74.3,69.5,30.11,ENE,63,8.0,13.0,85,0.00,,,0.00,Wunderground v.1.15,2013-06-24 14:10:00,
2013-06-24 10:15:00,74.3,68.8,30.10,NNE,24,9.0,15.0,83,0.00,,,0.00,Wunderground v.1.15,2013-06-24 14:15:00,
2013-06-24 10:20:00,74.7,69.2,30.11,NW,318,9.0,10.0,83,0.00,,,0.00,Wunderground v.1.15,2013-06-24 14:20:00,
2013-06-24 10:25:00,75.0,68.8,30.11,NNE,18,9.0,10.0,81,0.00,,,0.00,Wunderground v.1.15,2013-06-24 14:25:00,
2013-06-24 10:30:00,75.5,69.3,30.11,WNW,289,9.0,12.0,81,0.00,,,0.00,Wunderground v.1.15,2013-06-24 14:30:00,
2013-06-24 10:35:00,75.8,69.2,30.11,SW,235,9.0,21.0,80,0.00,,,0.00,Wunderground v.1.15,2013-06-24 14:35:00,
2013-06-24 10:45:00,76.4,69.0,30.10,ESE,113,11.0,21.0,78,0.00,,,0.00,Wunderground v.1.15,2013-06-24 14:45:00,
2013-06-24 10:51:00,76.6,69.2,30.10,NE,34,11.0,21.0,78,0.00,,,0.00,Wunderground v.1.15,2013-06-24 14:51:00,
2013-06-24 11:00:00,77.0,68.5,30.11,NE,40,9.0,21.0,75,0.00,,,0.00,Wunderground v.1.15,2013-06-24 15:00:00,
2013-06-24 11:05:00,76.8,68.7,30.10,North,360,11.0,21.0,76,0.00,,,0.00,Wunderground v.1.15,2013-06-24 15:05:00,
2013-06-24 11:10:00,76.7,68.6,30.10,North,356,12.0,21.0,76,0.00,,,0.00,Wunderground v.1.15,2013-06-24 15:10:00,
2013-06-24 11:21:00,76.9,68.8,30.10,ENE,72,8.0,21.0,76,0.00,,,0.00,Wunderground v.1.15,2013-06-24 15:21:00,
2013-06-24 11:30:00,77.2,68.7,30.10,NE,50,7.0,7.0,75,0.00,,,0.00,Wunderground v.1.15,2013-06-24 15:30:00,
2013-06-24 11:36:00,77.3,68.8,30.10,NW,321,7.0,8.0,75,0.00,,,0.00,Wunderground v.1.15,2013-06-24 15:36:00,
2013-06-24 11:45:00,77.5,68.6,30.10,SE,143,7.0,21.0,74,0.00,,,0.00,Wunderground v.1.15,2013-06-24 15:45:00,
2013-06-24 11:50:00,77.7,68.7,30.10,NE,53,8.0,21.0,74,0.00,,,0.00,Wunderground v.1.15,2013-06-24 15:50:00,
2013-06-24 11:55:00,77.7,68.4,30.10,NNW,338,8.0,21.0,73,0.00,,,0.00,Wunderground v.1.15,2013-06-24 15:55:00,
2013-06-24 12:00:00,77.6,68.3,30.10,NW,304,8.0,11.0,73,0.00,,,0.00,Wunderground v.1.15,2013-06-24 16:00:00,
2013-06-24 12:10:00,77.7,68.0,30.10,NW,308,8.0,8.0,72,0.00,,,0.00,Wunderground v.1.15,2013-06-24 16:10:00,
2013-06-24 12:15:00,78.1,68.7,30.10,NE,44,6.0,8.0,73,0.00,,,0.00,Wunderground v.1.15,2013-06-24 16:15:00,
2013-06-24 12:20:00,78.3,68.5,30.10,NNE,29,6.0,6.0,72,0.00,,,0.00,Wunderground v.1.15,2013-06-24 16:20:00,
2013-06-24 12:25:00,78.5,68.3,30.09,NW,321,6.0,8.0,71,0.00,,,0.00,Wunderground v.1.15,2013-06-24 16:25:00,
2013-06-24 12:35:00,78.6,68.4,30.09,East,87,6.0,18.0,71,0.00,,,0.00,Wunderground v.1.15,2013-06-24 16:35:00,
2013-06-24 12:45:00,78.9,68.3,30.09,East,91,5.0,18.0,70,0.00,,,0.00,Wunderground v.1.15,2013-06-24 16:45:00,
2013-06-24 12:50:00,79.0,68.0,30.09,NE,56,4.0,18.0,69,0.00,,,0.00,Wunderground v.1.15,2013-06-24 16:50:00,
2013-06-24 12:55:00,79.4,68.3,30.09,East,89,4.0,18.0,69,0.00,,,0.00,Wunderground v.1.15,2013-06-24 16:55:00,
2013-06-24 13:00:00,79.6,68.1,30.08,NE,43,4.0,18.0,68,0.00,,,0.00,Wunderground v.1.15,2013-06-24 17:00:00,
2013-06-24 13:10:00,78.6,68.8,30.07,West,274,5.0,5.0,72,0.00,,,0.00,Wunderground v.1.15,2013-06-24 17:10:00,
2013-06-24 13:15:00,78.4,68.6,30.06,WNW,293,4.0,18.0,72,0.00,,,0.00,Wunderground v.1.15,2013-06-24 17:15:00,
2013-06-24 13:25:00,79.7,69.0,30.05,WSW,253,1.0,18.0,70,0.00,,,0.00,Wunderground v.1.15,2013-06-24 17:25:00,
2013-06-24 13:30:00,79.9,68.4,30.04,WNW,302,2.0,18.0,68,0.00,,,0.00,Wunderground v.1.15,2013-06-24 17:30:00,
2013-06-24 13:40:00,80.3,68.3,30.04,WNW,298,4.0,4.0,67,0.00,,,0.00,Wunderground v.1.15,2013-06-24 17:40:00,
2013-06-24 13:50:00,80.9,68.9,30.04,North,349,5.0,18.0,67,0.00,,,0.00,Wunderground v.1.15,2013-06-24 17:50:00,
2013-06-24 13:55:00,81.2,68.8,30.04,NW,311,7.0,18.0,66,0.00,,,0.00,Wunderground v.1.15,2013-06-24 17:55:00,
2013-06-24 14:00:00,80.9,68.9,30.04,West,276,8.0,8.0,67,0.00,,,0.00,Wunderground v.1.15,2013-06-24 18:00:00,
2013-06-24 14:06:00,81.1,69.1,30.04,WSW,250,8.0,8.0,67,0.00,,,0.00,Wunderground v.1.15,2013-06-24 18:06:00,
2013-06-24 14:15:00,81.0,69.0,30.04,NW,308,10.0,10.0,67,0.00,,,0.00,Wunderground v.1.15,2013-06-24 18:15:00,
2013-06-24 14:25:00,81.2,68.8,30.03,NNW,338,10.0,15.0,66,0.00,,,0.00,Wunderground v.1.15,2013-06-24 18:25:00,
2013-06-24 14:35:00,82.0,69.5,30.02,WNW,293,8.0,10.0,66,0.00,,,0.00,Wunderground v.1.15,2013-06-24 18:35:00,
2013-06-24 14:45:00,82.2,69.7,30.02,WSW,239,6.0,9.0,66,0.00,,,0.00,Wunderground v.1.15,2013-06-24 18:45:00,
2013-06-24 14:50:00,82.3,69.8,30.01,West,270,6.0,8.0,66,0.00,,,0.00,Wunderground v.1.15,2013-06-24 18:50:00,
2013-06-24 14:55:00,82.2,69.3,30.02,WSW,250,7.0,8.0,65,0.00,,,0.00,Wunderground v.1.15,2013-06-24 18:55:00,
2013-06-24 15:05:00,82.7,70.2,30.01,West,278,8.0,8.0,66,0.00,,,0.00,Wunderground v.1.15,2013-06-24 19:05:00,
2013-06-24 15:11:00,82.1,68.7,30.01,WSW,248,9.0,9.0,64,0.00,,,0.00,Wunderground v.1.15,2013-06-24 19:11:00,
2013-06-24 15:20:00,82.1,68.7,30.01,WNW,297,9.0,9.0,64,0.00,,,0.00,Wunderground v.1.15,2013-06-24 19:20:00,
2013-06-24 15:25:00,82.8,68.9,30.01,NW,311,8.0,9.0,63,0.00,,,0.00,Wunderground v.1.15,2013-06-24 19:25:00,
2013-06-24 15:30:00,82.9,68.1,30.01,West,264,9.0,9.0,61,0.00,,,0.00,Wunderground v.1.15,2013-06-24 19:30:00,
2013-06-24 15:40:00,82.7,68.4,30.01,WSW,257,9.0,11.0,62,0.00,,,0.00,Wunderground v.1.15,2013-06-24 19:40:00,
2013-06-24 15:50:00,82.4,69.0,30.01,WSW,239,11.0,11.0,64,0.00,,,0.00,Wunderground v.1.15,2013-06-24 19:50:00,
2013-06-24 15:55:00,82.1,68.3,30.02,WNW,298,10.0,11.0,63,0.00,,,0.00,Wunderground v.1.15,2013-06-24 19:55:00,
2013-06-24 16:01:00,81.9,68.1,30.02,West,262,10.0,10.0,63,0.00,,,0.00,Wunderground v.1.15,2013-06-24 20:01:00,
2013-06-24 16:10:00,82.2,68.8,30.01,West,279,10.0,10.0,64,0.00,,,0.00,Wunderground v.1.15,2013-06-24 20:10:00,
2013-06-24 16:20:00,82.6,69.6,30.01,WSW,252,9.0,9.0,65,0.00,,,0.00,Wunderground v.1.15,2013-06-24 20:20:00,
2013-06-24 16:25:00,82.6,69.6,30.01,WNW,299,9.0,9.0,65,0.00,,,0.00,Wunderground v.1.15,2013-06-24 20:25:00,
2013-06-24 16:35:00,82.9,68.5,30.00,NW,304,8.0,11.0,62,0.00,,,0.00,Wunderground v.1.15,2013-06-24 20:35:00,
2013-06-24 16:40:00,82.9,69.9,30.00,WNW,297,9.0,9.0,65,0.00,,,0.00,Wunderground v.1.15,2013-06-24 20:40:00,
2013-06-24 16:45:00,83.2,70.7,30.00,WSW,252,8.0,9.0,66,0.00,,,0.00,Wunderground v.1.15,2013-06-24 20:45:00,
2013-06-24 16:51:00,83.1,69.2,30.00,West,276,8.0,8.0,63,0.00,,,0.00,Wunderground v.1.15,2013-06-24 20:51:00,
2013-06-24 16:56:00,83.0,70.0,29.99,NW,304,9.0,9.0,65,0.00,,,0.00,Wunderground v.1.15,2013-06-24 20:56:00,
2013-06-24 17:01:00,83.1,70.1,29.99,West,274,9.0,9.0,65,0.00,,,0.00,Wunderground v.1.15,2013-06-24 21:01:00,
2013-06-24 17:06:00,82.9,69.0,29.98,WNW,289,10.0,10.0,63,0.00,,,0.00,Wunderground v.1.15,2013-06-24 21:06:00,
2013-06-24 17:15:00,82.9,69.0,29.98,WNW,283,12.0,13.0,63,0.00,,,0.00,Wunderground v.1.15,2013-06-24 21:15:00,
2013-06-24 17:20:00,82.8,69.4,29.98,WNW,293,12.0,12.0,64,0.00,,,0.00,Wunderground v.1.15,2013-06-24 21:20:00,
2013-06-24 17:25:00,83.2,69.8,29.98,NW,321,11.0,14.0,64,0.00,,,0.00,Wunderground v.1.15,2013-06-24 21:25:00,
2013-06-24 17:36:00,83.4,70.8,29.98,WNW,283,10.0,17.0,66,0.00,,,0.00,Wunderground v.1.15,2013-06-24 21:36:00,
2013-06-24 17:55:00,83.1,70.6,29.99,West,262,12.0,17.0,66,0.00,,,0.00,Wunderground v.1.15,2013-06-24 21:55:00,
2013-06-24 18:01:00,82.9,70.4,29.99,WNW,285,11.0,11.0,66,0.00,,,0.00,Wunderground v.1.15,2013-06-24 22:01:00,
2013-06-24 18:10:00,83.2,71.1,29.99,West,276,9.0,13.0,67,0.00,,,0.00,Wunderground v.1.15,2013-06-24 22:10:00,
2013-06-24 18:15:00,83.2,71.5,29.99,WNW,290,9.0,13.0,68,0.00,,,0.00,Wunderground v.1.15,2013-06-24 22:15:00,
2013-06-24 18:20:00,83.2,72.0,29.98,West,267,9.0,9.0,69,0.00,,,0.00,Wunderground v.1.15,2013-06-24 22:20:00,
2013-06-24 18:25:00,83.1,71.4,29.98,WNW,287,10.0,14.0,68,0.00,,,0.00,Wunderground v.1.15,2013-06-24 22:25:00,
2013-06-24 18:35:00,83.1,71.9,29.98,WSW,248,9.0,11.0,69,0.00,,,0.00,Wunderground v.1.15,2013-06-24 22:35:00,
2013-06-24 18:40:00,83.2,72.0,29.98,West,261,9.0,9.0,69,0.00,,,0.00,Wunderground v.1.15,2013-06-24 22:40:00,
2013-06-24 18:50:00,83.4,72.2,29.99,WNW,300,9.0,9.0,69,0.00,,,0.00,Wunderground v.1.15,2013-06-24 22:50:00,
2013-06-24 19:01:00,83.7,72.4,29.99,NNW,332,10.0,16.0,69,0.00,,,0.00,Wunderground v.1.15,2013-06-24 23:01:00,
2013-06-24 19:10:00,83.8,72.5,29.99,WNW,283,11.0,18.0,69,0.00,,,0.00,Wunderground v.1.15,2013-06-24 23:10:00,
2013-06-24 19:15:00,83.8,72.5,29.99,NNW,333,11.0,18.0,69,0.00,,,0.00,Wunderground v.1.15,2013-06-24 23:15:00,
2013-06-24 19:20:00,83.7,72.0,30.00,NE,46,10.0,18.0,68,0.00,,,0.00,Wunderground v.1.15,2013-06-24 23:20:00,
2013-06-24 19:30:00,83.4,72.2,29.99,WNW,301,11.0,11.0,69,0.00,,,0.00,Wunderground v.1.15,2013-06-24 23:30:00,
2013-06-24 19:35:00,83.3,72.5,29.99,WNW,289,9.0,18.0,70,0.00,,,0.00,Wunderground v.1.15,2013-06-24 23:35:00,
2013-06-24 19:40:00,83.3,72.5,29.99,NW,304,7.0,18.0,70,0.00,,,0.00,Wunderground v.1.15,2013-06-24 23:40:00,
2013-06-24 19:50:00,82.9,72.5,29.99,NW,307,8.0,8.0,71,0.00,,,0.00,Wunderground v.1.15,2013-06-24 23:50:00,
2013-06-24 19:55:00,82.7,72.7,29.98,NNW,337,8.0,18.0,72,0.00,,,0.00,Wunderground v.1.15,2013-06-24 23:55:00,
2013-06-24 20:00:00,82.5,72.6,29.97,NW,304,7.0,7.0,72,0.00,,,0.00,Wunderground v.1.15,2013-06-25 00:00:00,
2013-06-24 20:10:00,82.2,72.7,29.97,NW,308,6.0,9.0,73,0.00,,,0.00,Wunderground v.1.15,2013-06-25 00:10:00,
2013-06-24 20:15:00,82.1,72.6,29.98,WNW,293,8.0,9.0,73,0.00,,,0.00,Wunderground v.1.15,2013-06-25 00:15:00,
2013-06-24 20:21:00,82.0,72.5,29.98,NW,304,10.0,10.0,73,0.00,,,0.00,Wunderground v.1.15,2013-06-25 00:21:00,
2013-06-24 20:25:00,81.8,72.3,29.99,WNW,302,11.0,11.0,73,0.00,,,0.00,Wunderground v.1.15,2013-06-25 00:25:00,
2013-06-24 20:35:00,81.6,72.1,29.99,WNW,298,11.0,19.0,73,0.00,,,0.00,Wunderground v.1.15,2013-06-25 00:35:00,
2013-06-24 20:40:00,77.9,66.1,30.04,NE,41,15.0,32.0,67,0.50,,,0.03,Wunderground v.1.15,2013-06-25 00:40:00,
2013-06-24 20:45:00,71.8,64.9,30.04,WNW,293,25.0,32.0,79,0.34,,,0.06,Wunderground v.1.15,2013-06-25 00:45:00,
2013-06-24 20:50:00,69.1,64.4,30.04,NNW,343,27.0,27.0,85,0.09,,,0.07,Wunderground v.1.15,2013-06-25 00:50:00,
2013-06-24 20:55:00,67.7,65.0,30.04,NNE,32,21.0,27.0,91,0.44,,,0.12,Wunderground v.1.15,2013-06-25 00:55:00,
2013-06-24 21:05:00,66.6,64.8,30.04,NW,326,13.0,19.0,94,0.29,,,0.18,Wunderground v.1.15,2013-06-25 01:05:00,
2013-06-24 21:15:00,66.1,64.6,30.02,WNW,285,14.0,19.0,95,0.12,,,0.20,Wunderground v.1.15,2013-06-25 01:15:00,
2013-06-24 21:20:00,66.0,64.8,30.00,NW,309,10.0,10.0,96,0.08,,,0.20,Wunderground v.1.15,2013-06-25 01:20:00,
2013-06-24 21:30:00,66.1,64.9,30.00,WNW,302,8.0,19.0,96,0.04,,,0.21,Wunderground v.1.15,2013-06-25 01:30:00,
2013-06-24 21:35:00,66.2,65.0,29.98,WNW,289,8.0,19.0,96,0.04,,,0.21,Wunderground v.1.15,2013-06-25 01:35:00,
2013-06-24 21:45:00,66.3,64.8,29.98,West,277,7.0,8.0,95,0.00,,,0.21,Wunderground v.1.15,2013-06-25 01:45:00,
2013-06-24 21:50:00,66.3,64.8,29.98,WNW,296,8.0,8.0,95,0.00,,,0.21,Wunderground v.1.15,2013-06-25 01:50:00,
2013-06-24 21:55:00,66.2,64.7,29.98,West,260,9.0,10.0,95,0.00,,,0.21,Wunderground v.1.15,2013-06-25 01:55:00,
2013-06-24 22:00:00,66.2,65.0,29.99,WNW,298,9.0,9.0,96,0.00,,,0.21,Wunderground v.1.15,2013-06-25 02:00:00,
2013-06-24 22:10:00,66.4,64.9,29.97,WNW,293,10.0,10.0,95,0.00,,,0.21,Wunderground v.1.15,2013-06-25 02:10:00,
2013-06-24 22:20:00,66.7,64.9,29.97,NW,304,8.0,8.0,94,0.00,,,0.21,Wunderground v.1.15,2013-06-25 02:20:00,
2013-06-24 22:30:00,66.9,65.1,29.95,WNW,291,9.0,9.0,94,0.00,,,0.21,Wunderground v.1.15,2013-06-25 02:30:00,
2013-06-24 22:35:00,66.9,65.4,29.96,WNW,297,7.0,37.0,95,0.00,,,0.21,Wunderground v.1.15,2013-06-25 02:35:00,
2013-06-24 22:40:00,67.1,65.6,29.96,West,273,7.0,37.0,95,0.00,,,0.21,Wunderground v.1.15,2013-06-25 02:40:00,
2013-06-24 22:45:00,67.3,65.8,29.96,WNW,290,8.0,37.0,95,0.00,,,0.21,Wunderground v.1.15,2013-06-25 02:45:00,
2013-06-24 22:55:00,67.6,66.4,29.95,West,274,7.0,37.0,96,0.00,,,0.21,Wunderground v.1.15,2013-06-25 02:55:00,
2013-06-24 23:00:00,67.6,66.4,29.95,West,281,7.0,7.0,96,0.00,,,0.21,Wunderground v.1.15,2013-06-25 03:00:00,
2013-06-24 23:10:00,67.8,66.6,29.95,West,279,5.0,37.0,96,0.00,,,0.21,Wunderground v.1.15,2013-06-25 03:10:00,
2013-06-24 23:15:00,67.9,66.7,29.95,WNW,287,5.0,37.0,96,0.00,,,0.21,Wunderground v.1.15,2013-06-25 03:15:00,
2013-06-24 23:20:00,68.0,66.8,29.96,NW,313,5.0,5.0,96,0.00,,,0.21,Wunderground v.1.15,2013-06-25 03:20:00,
2013-06-24 23:30:00,68.0,67.1,29.99,NE,39,4.0,37.0,97,0.00,,,0.21,Wunderground v.1.15,2013-06-25 03:30:00,
2013-06-24 23:35:00,67.8,66.9,29.99,NNE,12,6.0,37.0,97,0.00,,,0.21,Wunderground v.1.15,2013-06-25 03:35:00,
2013-06-24 23:45:00,67.6,66.7,29.99,North,349,8.0,37.0,97,0.00,,,0.21,Wunderground v.1.15,2013-06-25 03:45:00,
2013-06-24 23:50:00,67.7,66.8,29.99,NW,324,8.0,37.0,97,0.00,,,0.21,Wunderground v.1.15,2013-06-25 03:50:00,
2013-06-24 23:55:00,67.9,67.0,29.98,WNW,293,9.0,37.0,97,0.00,,,0.21,Wunderground v.1.15,2013-06-25 03:55:00,